Regional Weather Roundup
Issued by NWS

Home | Current Version | Previous Version | Text Only | Print | Product List | Glossary On
Versions: 1 2 3 4 5 6 7 8 9 10 11 12 13 14 15 16 17 18 19 20 21 22 23 24 25 26 27
000
ASUS45 KPSR 251710
RWRAZ

ARIZONA HOURLY REGIONAL WEATHER ROUNDUP
NATIONAL WEATHER SERVICE PHOENIX AZ
1000 AM MST TUE JUL 25 2017

NOTE: FAIR INDICATES FEW OR NO CLOUDS BELOW 12,000 FEET WITH NO
SIGNIFICANT WEATHER AND/OR OBSTRUCTIONS TO VISIBILITY.

AZZ001>003-036-251800-
NORTHWEST ARIZONA

CITY           SKY/WX    TMP DP  RH WIND       PRES   REMARKS
BULLHEAD CITY  LGT RAIN  79  73  83 N21       29.94R
KINGMAN        CLOUDY    79  65  62 SW10      30.11R
$$

AZZ004>008-015-016-018-251800-
NORTH CENTRAL ARIZONA

CITY           SKY/WX    TMP DP  RH WIND       PRES   REMARKS
GRAND CANYON   CLOUDY    64  61  90 SW15      30.30S
WILLIAMS       CLOUDY    66  59  77 SW14G20   30.32S
PRESCOTT       CLOUDY    75  61  61 S9        30.23R
FLAGSTAFF      CLOUDY    63  59  87 S14       30.36R
PAYSON         CLOUDY    73  63  68 CALM      30.29R
PAGE           MOSUNNY   78  63  59 N8        30.11S
$$

AZZ009>014-017-251800-
NORTHEAST ARIZONA

CITY           SKY/WX    TMP DP  RH WIND       PRES   REMARKS
WINSLOW        PTSUNNY   80  60  50 W14       30.21S
SAINT JOHNS    MOSUNNY   77  60  55 SW7       30.26S
WINDOW ROCK    MOSUNNY   74  58  57 SW16G22   30.33R
SHOW LOW       MOSUNNY   68  57  68 SW10      30.33R
$$

AZZ540-542>544-546-548-251800-
GREATER PHOENIX AREA

CITY           SKY/WX    TMP DP  RH WIND       PRES   REMARKS
PHOENIX        PTSUNNY   92  70  48 E8        29.95R
BUCKEYE        SUNNY     90  73  58 E9        29.96S
GLENDALE       PTSUNNY   90  72  55 NE3       29.97R
LUKE AFB       MOSUNNY   89  72  56 CALM      29.95S
DEER VALLEY    PTSUNNY   88  69  53 SE6       29.98R
SCOTTSDALE     PTSUNNY   89  67  47 CALM      30.00R
MESA-FALCON    PTSUNNY   88  72  58 CALM      29.99R
MESA-GATEWAY   PTSUNNY   88  72  58 SE7       29.99R
CHANDLER       SUNNY     91  72  52 VRB5      29.97R
$$

AZZ539-553-251800-
SOUTHWEST MARICOPA COUNTY AND PINAL COUNTY

CITY           SKY/WX    TMP DP  RH WIND       PRES   REMARKS
CASA GRANDE    MOSUNNY   90  72  55 CALM      29.99R
GILA BEND      MOSUNNY   92  67  43 NW3       29.93R
$$

AZZ503-504-507>509-251800-
SOUTHEAST ARIZONA

CITY           SKY/WX    TMP DP  RH WIND       PRES   REMARKS
TUCSON         SUNNY     85  67  54 S5        30.09R
DAVIS-MONTHAN  SUNNY     88  67  49 S5        30.08R
RYAN FIELD     SUNNY     86  70  58 CALM      30.07S
NOGALES        SUNNY     83  63  50 S6        30.17R
SIERRA VISTA   MOSUNNY   78  64  62 N3        30.23S
DOUGLAS        SUNNY     80  65  59 VRB5      30.19R
SAFFORD        SUNNY     82  66  58 CALM      30.11S
$$

AZZ532-251800-
SOUTHWEST ARIZONA

CITY           SKY/WX    TMP DP  RH WIND       PRES   REMARKS
YUMA           PTSUNNY   95  60  31 SE9       29.88R
$$

CAZ041-043-047-048-061-525>527-560>570-251800-
SOUTHERN CALIFORNIA

CITY           SKY/WX    TMP DP  RH WIND       PRES   REMARKS
DOWNTOWN L.A.  CLOUDY    75  65  70 CALM      29.97R
L.A. AIRPORT   CLOUDY    71  65  81 SW7       29.98R
SAN DIEGO      CLOUDY    71  63  75 W7        30.00R
BURBANK        MOSUNNY   74  62  66 SE5       29.98R
ONTARIO        PTSUNNY   75  63  66 CALM      29.99R
RIVERSIDE      SUNNY     74  65  73 VRB5      29.98S
PALM SPRINGS   PTSUNNY   94  54  25 CALM      29.91S
EL CENTRO NAS  PTSUNNY   92  66  42 E6        29.87R
IMPERIAL       MOSUNNY   91  72  53 E6        29.85R
BLYTHE         SUNNY     93  72  50 S7        29.89R HX 101
NEEDLES        CLOUDY    93  69  45 E7        29.94R
$$

NVZ020-UTZ003-251800-
SOUTHERN NEVADA-UTAH

CITY           SKY/WX    TMP DP  RH WIND       PRES   REMARKS
LAS VEGAS      CLOUDY    78  67  68 VRB3      30.05R
SALT LAKE CITY CLOUDY    74  60  61 SE10      30.11F
$$

NMZ009-TXZ055-251800-
NEW MEXICO-WEST TEXAS

CITY           SKY/WX    TMP DP  RH WIND       PRES   REMARKS
ALBUQUERQUE    CLOUDY    80  60  50 VRB6      30.24S
EL PASO        MOSUNNY   83  62  49 CALM      30.17S
$$


........................KEY........................
SKY/WX - SKY CONDITION/WEATHER
TMP    - TEMPERATURE IN FAHRENHEIT
DP     - DEW POINT IN FAHRENHEIT
RH     - RELATIVE HUMIDITY IN PERCENT
WIND   - DIRECTION AND SPEED IN MILES PER HOUR (MPH)
VRB    - VARIABLE WIND DIRECTION
PRES   - MEAN SEA LEVEL PRESSURE IN INCHES OF MERCURY
         F - FALLING PRESSURE   R - RISING PRESSURE
         S - STEADY PRESSURE
VSB    - VISIBILITY IN MILES
HX     - HEAT INDEX IN FAHRENHEIT
WCI    - WIND CHILL INDEX IN FAHRENHEIT
TC     - TEMPERATURE IN CELSIUS WHICH IS ALSO KNOWN AS
         TEMPERATURE IN CENTIGRADE
AFB    - AIR FORCE BASE
         LUKE AFB IS LUKE AIR FORCE BASE
         DAVIS-MONTHAN IS DAVIS-MONTHAN AIR FORCE BASE
NAS    - NAVAL AIR STATION
         EL CENTRO NAS IS EL CENTRO NAVAL AIR STATION
N/A    - NOT AVAILABLE





USA.gov is the U.S. government's official web portal to all federal, state and local government web resources and services.